STARLINK-35338 (66250 NORAD) Tracking and Keplerian Element Data

This shows tracking and keplerian element data for the satellite.

Feedback or suggestion? Click here.




ElementValue
Catalog66250
NameSTARLINK-35338
Epoch Orbit593
Epoch Day354.25003472
Epoch Year2025
RAAN293.9392
Inclination53.1602
Eccentricity9.54E-05
Argument of Perigee91.3469
Mean Anonmoly105.2632
Mean Motion15.39579915
Decay Rate0.00063418
L11 66250U 25245S 25354.25003472 .00063418 00000+0 15844-2 0 9994
L22 66250 53.1602 293.9392 0000954 91.3469 105.2632 15.39579915 5935



Live tracking and technical data element details for STARLINK-35338 (NORAD 66250). STARLINK-35338 can be tracked NOW for your location showing map with azimuth and elevation plus other details from your city location.







IsCatalogInMostPopularTable: catalog: 66250, numindb: 9
Update: records affected: 1



GetName: 66250 STARLINK-35338

Hit Count: updated at: Thu, 16 Apr 2026 04:49:49 GMT